London-Corbin, KY

3:08 AM EDT on May 26, 2018 (GMT -0400)
London-Corbin / McKee

Weather History for KLOZ - October, 2011

Change the Weather History Date:

Tuesday, October 11, 2011

  Actual Average Record
Temperature  
Mean Temperature 64 °F 59 °F  
Max Temperature 69 °F 71 °F 86 °F (2008)
Min Temperature 58 °F 47 °F 26 °F (1964)
Degree Days  
Heating Degree Days 1 7  
Month to date heating degree days 73 63  
Since 1 July heating degree days 135 110  
Cooling Degree Days 0 1  
Month to date cooling degree days 2 13  
Year to date cooling degree days 1247 1180  
Growing Degree Days 14 (Base 50)    
Moisture  
Dew Point 53 °F    
Average Humidity 76    
Maximum Humidity 100    
Minimum Humidity 52    
Precipitation  
Precipitation 0.31 in 0.09 in 0.31 in (2011)
Month to date precipitation 0.31 1.05  
Year to date precipitation 46.78  
Sea Level Pressure  
Sea Level Pressure 30.00 in    
Wind  
Wind Speed 3 mph (East)    
Max Wind Speed 12 mph    
Max Gust Speed 17 mph    
Visibility 9 miles    
Events Rain    
T = Trace of Precipitation, MM = Missing Value Source: NWS Daily Summary

Daily Weather History Graph

Daily Weather History Graph

Search for Another Location

Airport or City:

Astronomy

Oct. 11, 2011 Rise Set
Actual Time 7:40 AM EDT 7:05 PM EDT
Civil Twilight 7:14 AM EDT 7:31 PM EDT
Nautical Twilight 6:43 AM EDT 8:01 PM EDT
Astronomical Twilight 6:13 AM EDT 8:31 PM EDT
Moon 6:38 PM EDT (10/11) 7:16 AM EDT (10/11)
Length of Visible Light 12h 17m
Length of Day
11h 25m
Full, 100% of the Moon is Illuminated
Oct 11
Full
Oct 11
Full
Oct 19
Last Quarter
Oct 26
New
Nov 2
First Quarter

Hourly Weather History & Observations

Time (EDT) Temp. Dew Point Humidity Pressure Visibility Wind Dir Wind Speed Gust Speed Precip Events Conditions
12:53 AM 64.0 °F 46.0 °F 52% 30.05 in 10.0 mi Calm Calm - N/A   Partly Cloudy
1:53 AM 63.0 °F 48.0 °F 58% 30.04 in 10.0 mi Calm Calm - N/A   Overcast
2:53 AM 63.0 °F 48.9 °F 60% 30.03 in 10.0 mi Calm Calm - N/A   Overcast
3:53 AM 63.0 °F 48.9 °F 60% 30.02 in 10.0 mi Calm Calm - N/A   Overcast
4:53 AM 63.0 °F 48.9 °F 60% 30.02 in 10.0 mi ESE 3.5 mph - N/A   Overcast
5:53 AM 64.4 °F 48.2 °F 56% 30.06 in 10.0 mi SE 3.5 mph - N/A   Overcast
6:53 AM 63.0 °F 50.0 °F 63% 30.03 in 10.0 mi East 3.5 mph - N/A   Overcast
7:53 AM 62.6 °F 51.8 °F 68% 30.07 in 10.0 mi East 11.5 mph - N/A   Overcast
8:53 AM 61.0 °F 52.0 °F 72% 30.06 in 10.0 mi East 5.8 mph - N/A   Overcast
9:53 AM 62.6 °F 53.6 °F 72% 30.07 in 10.0 mi East 6.9 mph - N/A   Overcast
10:53 AM 63.0 °F 54.0 °F 72% 30.04 in 10.0 mi East 8.1 mph - N/A   Overcast
11:53 AM 64.0 °F 54.0 °F 70% 30.03 in 10.0 mi East 6.9 mph - N/A   Overcast
12:53 PM 68.0 °F 53.1 °F 59% 30.01 in 10.0 mi SE 5.8 mph - N/A   Scattered Clouds
1:53 PM 68.0 °F 52.0 °F 56% 29.99 in 10.0 mi Variable 4.6 mph - N/A   Overcast
2:53 PM 68.0 °F 51.1 °F 55% 29.97 in 10.0 mi ESE 4.6 mph - N/A   Overcast
3:53 PM 68.0 °F 51.8 °F 56% 29.99 in 10.0 mi SE 4.6 mph - N/A   Overcast
4:53 PM 66.9 °F 53.1 °F 61% 29.95 in 10.0 mi Calm Calm - N/A   Overcast
5:53 PM 63.0 °F 57.0 °F 81% 29.95 in 8.0 mi Calm Calm - 0.02 in Rain Light Rain
6:53 PM 61.0 °F 59.0 °F 93% 29.94 in 7.0 mi East 3.5 mph - 0.04 in Rain Light Rain
7:53 PM 60.1 °F 59.0 °F 96% 29.95 in 9.0 mi Calm Calm - 0.02 in Rain Light Rain
8:53 PM 59.0 °F 59.0 °F 100% 29.95 in 7.0 mi Calm Calm - 0.06 in Rain Rain
9:53 PM 59.0 °F 57.9 °F 96% 29.96 in 6.0 mi Calm Calm - 0.07 in Rain Rain
10:53 PM 59.0 °F 57.9 °F 96% 29.95 in 7.0 mi NE 3.5 mph - 0.08 in Rain Light Rain
11:40 PM 59.0 °F 57.2 °F 94% 29.97 in 10.0 mi East 3.5 mph - 0.01 in Rain Light Rain
11:53 PM 59.0 °F 57.9 °F 96% 29.95 in 10.0 mi Calm Calm - 0.02 in Rain Light Rain